TimeCST,TemperatureF,Dew PointF,Humidity,Sea Level PressureIn,VisibilityMPH,Wind Direction,Wind SpeedMPH,Gust SpeedMPH,PrecipitationIn,Events,Conditions,WindDirDegrees,DateUTC
12:15 AM,24.8,19.6,81,29.99,10.0,WNW,6.9,-,N/A,,Clear,300,2012-12-08 06:15:00
12:35 AM,25.0,19.9,81,29.98,10.0,WNW,5.8,-,N/A,,Clear,300,2012-12-08 06:35:00
12:55 AM,23.9,18.9,81,29.97,10.0,NW,6.9,-,N/A,,Clear,320,2012-12-08 06:55:00
1:15 AM,24.8,19.9,82,29.98,10.0,WNW,6.9,-,N/A,,Clear,300,2012-12-08 07:15:00
1:35 AM,25.5,20.5,81,29.97,10.0,NW,5.8,-,N/A,,Clear,320,2012-12-08 07:35:00
1:55 AM,26.4,21.2,81,29.97,10.0,WNW,5.8,-,N/A,,Clear,300,2012-12-08 07:55:00
2:15 AM,26.8,21.2,79,29.97,10.0,NW,5.8,-,N/A,,Clear,320,2012-12-08 08:15:00
2:35 AM,26.8,21.4,80,29.97,10.0,NNW,5.8,-,N/A,,Clear,330,2012-12-08 08:35:00
2:55 AM,27.1,21.4,79,29.97,10.0,NNW,6.9,-,N/A,,Clear,330,2012-12-08 08:55:00
3:15 AM,27.1,21.6,80,29.97,10.0,NNW,6.9,-,N/A,,Clear,330,2012-12-08 09:15:00
3:35 AM,26.6,21.2,80,29.95,10.0,NNW,4.6,-,N/A,,Clear,340,2012-12-08 09:35:00
3:55 AM,27.0,21.4,79,29.94,10.0,Calm,Calm,-,N/A,,Clear,0,2012-12-08 09:55:00
4:15 AM,27.1,21.6,80,29.94,10.0,NNW,4.6,-,N/A,,Clear,340,2012-12-08 10:15:00
4:35 AM,27.1,21.4,79,29.93,10.0,NNW,3.5,-,N/A,,Clear,340,2012-12-08 10:35:00
4:55 AM,27.1,21.6,80,29.93,10.0,NW,3.5,-,N/A,,Clear,310,2012-12-08 10:55:00
5:15 AM,26.6,21.2,80,29.92,10.0,Calm,Calm,-,N/A,,Clear,0,2012-12-08 11:15:00
5:35 AM,26.8,21.2,79,29.92,10.0,Calm,Calm,-,N/A,,Clear,0,2012-12-08 11:35:00
5:55 AM,27.0,21.6,80,29.92,10.0,Calm,Calm,-,N/A,,Clear,0,2012-12-08 11:55:00
6:15 AM,26.6,21.2,80,29.93,10.0,Calm,Calm,-,N/A,,Clear,0,2012-12-08 12:15:00
6:35 AM,27.5,22.1,80,29.92,10.0,South,4.6,-,N/A,,Clear,190,2012-12-08 12:35:00
6:55 AM,28.2,22.8,80,29.93,10.0,SSW,5.8,-,N/A,,Mostly Cloudy,200,2012-12-08 12:55:00
7:15 AM,28.8,23.4,80,29.93,10.0,SSW,3.5,-,N/A,,Overcast,200,2012-12-08 13:15:00
7:35 AM,29.3,24.3,81,29.93,10.0,Calm,Calm,-,N/A,,Mostly Cloudy,0,2012-12-08 13:35:00
7:55 AM,29.5,24.6,82,29.93,10.0,Calm,Calm,-,N/A,,Scattered Clouds,0,2012-12-08 13:55:00
8:15 AM,29.7,25.0,83,29.92,10.0,Calm,Calm,-,N/A,,Clear,0,2012-12-08 14:15:00
8:35 AM,30.0,25.5,83,29.93,10.0,Calm,Calm,-,N/A,,Clear,0,2012-12-08 14:35:00
8:55 AM,30.2,25.7,83,29.93,10.0,Calm,Calm,-,N/A,,Clear,0,2012-12-08 14:55:00
9:15 AM,30.9,26.1,82,29.92,10.0,South,3.5,-,N/A,,Clear,180,2012-12-08 15:15:00
9:35 AM,31.5,26.4,82,29.92,10.0,SSE,4.6,-,N/A,,Clear,160,2012-12-08 15:35:00
9:55 AM,32.0,26.6,80,29.91,10.0,SSE,6.9,-,N/A,,Clear,150,2012-12-08 15:55:00
10:15 AM,32.9,26.6,78,29.91,10.0,SE,6.9,-,N/A,,Clear,130,2012-12-08 16:15:00
10:35 AM,33.6,27.0,77,29.90,10.0,SE,6.9,-,N/A,,Clear,140,2012-12-08 16:35:00
10:55 AM,34.7,27.3,74,29.89,10.0,SE,10.4,-,N/A,,Clear,140,2012-12-08 16:55:00
11:15 AM,35.8,27.3,71,29.89,10.0,SSE,10.4,-,N/A,,Clear,160,2012-12-08 17:15:00
11:35 AM,36.1,27.5,71,29.87,10.0,SSE,11.5,-,N/A,,Clear,150,2012-12-08 17:35:00
11:55 AM,37.6,28.2,69,29.85,10.0,SSE,10.4,-,N/A,,Clear,160,2012-12-08 17:55:00
12:15 PM,37.9,27.5,66,29.84,10.0,SSE,10.4,-,N/A,,Clear,160,2012-12-08 18:15:00
12:35 PM,38.3,28.2,67,29.83,10.0,SSE,12.7,-,N/A,,Clear,150,2012-12-08 18:35:00
12:55 PM,39.0,28.4,66,29.82,10.0,SSE,10.4,-,N/A,,Clear,150,2012-12-08 18:55:00
1:15 PM,40.3,27.5,60,29.81,10.0,South,10.4,-,N/A,,Clear,170,2012-12-08 19:15:00
1:35 PM,41.0,27.3,58,29.80,10.0,South,10.4,-,N/A,,Clear,170,2012-12-08 19:35:00
1:55 PM,40.8,27.5,59,29.79,10.0,SSE,11.5,-,N/A,,Clear,160,2012-12-08 19:55:00
2:15 PM,40.3,27.3,60,29.78,10.0,SSE,12.7,-,N/A,,Clear,160,2012-12-08 20:15:00
2:35 PM,39.4,28.2,64,29.78,10.0,SSE,11.5,17.3,N/A,,Clear,160,2012-12-08 20:35:00
2:55 PM,38.3,27.5,65,29.76,10.0,SSE,15.0,-,N/A,,Clear,160,2012-12-08 20:55:00
3:15 PM,37.4,28.0,69,29.76,10.0,SSE,13.8,-,N/A,,Clear,160,2012-12-08 21:15:00
3:35 PM,37.4,27.7,68,29.76,10.0,SSE,13.8,-,N/A,,Clear,160,2012-12-08 21:35:00
3:55 PM,37.4,27.9,68,29.75,10.0,SSE,13.8,-,N/A,,Clear,160,2012-12-08 21:55:00
4:15 PM,36.7,27.5,69,29.74,10.0,SSE,15.0,-,N/A,,Clear,150,2012-12-08 22:15:00
4:35 PM,36.0,28.0,73,29.75,10.0,SSE,12.7,-,N/A,,Clear,150,2012-12-08 22:35:00
4:55 PM,34.3,27.5,76,29.76,10.0,SE,9.2,-,N/A,,Clear,130,2012-12-08 22:55:00
5:15 PM,32.9,27.1,79,29.79,10.0,SSW,3.5,-,N/A,,Clear,210,2012-12-08 23:15:00
5:35 PM,33.8,27.9,79,29.78,10.0,South,4.6,-,N/A,,Scattered Clouds,170,2012-12-08 23:35:00
5:55 PM,30.4,25.0,80,29.78,10.0,SE,3.5,-,N/A,,Clear,140,2012-12-08 23:55:00
6:15 PM,29.7,25.5,85,29.78,7.0,SSE,6.9,-,N/A,,Clear,150,2012-12-09 00:15:00
6:35 PM,28.8,24.8,85,29.79,7.0,SSE,5.8,-,N/A,,Clear,150,2012-12-09 00:35:00
7:15 PM,27.9,25.3,90,29.80,7.0,ESE,3.5,-,N/A,,Scattered Clouds,110,2012-12-09 01:15:00
7:35 PM,29.3,26.4,89,29.82,7.0,Calm,Calm,-,N/A,,Scattered Clouds,0,2012-12-09 01:35:00
7:55 PM,30.9,27.5,87,29.82,7.0,SE,3.5,-,N/A,,Scattered Clouds,140,2012-12-09 01:55:00
8:15 PM,31.8,27.9,85,29.82,7.0,SE,4.6,-,N/A,,Scattered Clouds,140,2012-12-09 02:15:00
8:35 PM,32.0,28.8,88,29.80,7.0,SSE,10.4,-,N/A,,Clear,150,2012-12-09 02:35:00
8:55 PM,32.4,29.7,90,29.79,7.0,SE,9.2,-,N/A,,Clear,140,2012-12-09 02:55:00
9:15 PM,32.0,29.1,89,29.79,7.0,SSE,6.9,-,N/A,,Clear,150,2012-12-09 03:15:00
9:35 PM,33.6,30.0,87,29.78,7.0,SSE,9.2,-,N/A,,Clear,160,2012-12-09 03:35:00
9:55 PM,35.2,30.4,82,29.79,10.0,South,9.2,-,N/A,,Clear,170,2012-12-09 03:55:00
10:15 PM,35.8,30.4,81,29.79,10.0,South,11.5,-,N/A,,Clear,180,2012-12-09 04:15:00
10:35 PM,36.0,30.6,81,29.80,10.0,South,13.8,-,N/A,,Clear,190,2012-12-09 04:35:00
10:55 PM,36.5,30.4,78,29.81,10.0,SSW,9.2,-,N/A,,Clear,200,2012-12-09 04:55:00
11:15 PM,36.5,29.8,77,29.81,10.0,SSW,10.4,-,N/A,,Clear,200,2012-12-09 05:15:00
11:35 PM,36.7,29.3,75,29.82,10.0,SW,12.7,17.3,N/A,,Clear,220,2012-12-09 05:35:00
11:55 PM,36.7,29.1,74,29.85,10.0,WSW,15.0,-,N/A,,Clear,250,2012-12-09 05:55:00